Location: Newark
(45.6439°N, 0.5436°E)
Time: 20:47:51
(UTC+00:00)

N. Korean satellite - Pass Details

Date: 30 November 2019
Orbit: 455 x 507 km, 97.2° (Epoch: 13 December)

Event Time Altitude Azimuth Distance (km) Brightness Sun altitude
Rises 16:44:54 0° 160° (SSE) 2,590 10.3 -5.3°
Reaches altitude 10° 16:46:58 10° 157° (SSE) 1,714 9.4 -5.6°
Maximum altitude 16:50:38 66° 75° (ENE) 557 6.6 -6.2°
Drops below altitude 10° 16:54:21 10° 353° (N) 1,732 9.2 -6.8°
Sets 16:56:27 0° 351° (N) 2,621 10.1 -7.1°
